owner,sensor,date,latitude,longitude,vertical_datum,wind_speed,wind_to_direction,wind_speed_of_gust,qcFlag 
WAVCIS,ioos:station:WAVCIS:CSI15:1,2009-12-01T00:00:00Z,28.8332,-90.8320,10.0,9.49,339.0,,'11111222,11111222,99999999' 
WAVCIS,ioos:station:WAVCIS:CSI15:1,2009-12-01T01:00:00Z,28.8332,-90.8320,10.0,10.33,1.0,,'11111222,11111222,99999999' 
WAVCIS,ioos:station:WAVCIS:CSI15:1,2009-12-01T02:00:00Z,28.8332,-90.8320,10.0,11.29,349.0,,'11111222,11111222,99999999' 
WAVCIS,ioos:station:WAVCIS:CSI15:1,2009-12-01T03:00:00Z,28.8332,-90.8320,10.0,10.39,7.0,,'11111222,11111222,99999999' 
WAVCIS,ioos:station:WAVCIS:CSI15:1,2009-12-01T04:00:00Z,28.8332,-90.8320,10.0,9.45,10.0,,'11111222,11111222,99999999' 
WAVCIS,ioos:station:WAVCIS:CSI15:1,2009-12-01T05:00:00Z,28.8332,-90.8320,10.0,10.09,21.0,,'11111222,11111222,99999999' 
WAVCIS,ioos:station:WAVCIS:CSI15:1,2009-12-01T06:00:00Z,28.8332,-90.8320,10.0,9.78,22.0,,'11111222,11111222,99999999' 
WAVCIS,ioos:station:WAVCIS:CSI15:1,2009-12-01T07:00:00Z,28.8332,-90.8320,10.0,10.7,27.0,,'11111222,11111222,99999999' 
WAVCIS,ioos:station:WAVCIS:CSI15:1,2009-12-01T08:00:00Z,28.8332,-90.8320,10.0,11.67,29.0,,'11111222,11111222,99999999' 
WAVCIS,ioos:station:WAVCIS:CSI15:1,2009-12-01T09:00:00Z,28.8332,-90.8320,10.0,10.99,28.0,,'11111222,11111222,99999999' 
WAVCIS,ioos:station:WAVCIS:CSI15:1,2009-12-01T10:00:00Z,28.8332,-90.8320,10.0,10.98,32.0,,'11111222,11111222,99999999' 
WAVCIS,ioos:station:WAVCIS:CSI15:1,2009-12-01T11:00:00Z,28.8332,-90.8320,10.0,11.61,42.0,,'11111222,11111222,99999999' 
WAVCIS,ioos:station:WAVCIS:CSI15:1,2009-12-01T12:00:00Z,28.8332,-90.8320,10.0,12.6,39.0,,'11111222,11111222,99999999' 
WAVCIS,ioos:station:WAVCIS:CSI15:1,2009-12-01T13:00:00Z,28.8332,-90.8320,10.0,14.01,40.0,,'11111222,11111222,99999999' 
WAVCIS,ioos:station:WAVCIS:CSI15:1,2009-12-01T14:00:00Z,28.8332,-90.8320,10.0,11.13,29.0,,'11111222,11111222,99999999' 
WAVCIS,ioos:station:WAVCIS:CSI15:1,2009-12-01T15:00:00Z,28.8332,-90.8320,10.0,13.09,19.0,,'11111222,11111222,99999999' 
WAVCIS,ioos:station:WAVCIS:CSI15:1,2009-12-01T16:00:00Z,28.8332,-90.8320,10.0,13.05,26.0,,'11111222,11111222,99999999' 
WAVCIS,ioos:station:WAVCIS:CSI15:1,2009-12-01T17:00:00Z,28.8332,-90.8320,10.0,13.89,26.0,,'11111222,11111222,99999999' 
WAVCIS,ioos:station:WAVCIS:CSI15:1,2009-12-01T18:00:00Z,28.8332,-90.8320,10.0,13.52,28.0,,'11111222,11111222,99999999' 
WAVCIS,ioos:station:WAVCIS:CSI15:1,2009-12-01T19:00:00Z,28.8332,-90.8320,10.0,15.17,32.0,,'11111222,11111222,99999999' 
WAVCIS,ioos:station:WAVCIS:CSI15:1,2009-12-01T20:00:00Z,28.8332,-90.8320,10.0,14.06,35.0,,'11111222,11111222,99999999' 
WAVCIS,ioos:station:WAVCIS:CSI15:1,2009-12-01T21:00:00Z,28.8332,-90.8320,10.0,13.18,33.0,,'11111222,11111222,99999999' 
WAVCIS,ioos:station:WAVCIS:CSI15:1,2009-12-01T22:00:00Z,28.8332,-90.8320,10.0,12.05,39.0,,'11111222,11111222,99999999' 
WAVCIS,ioos:station:WAVCIS:CSI15:1,2009-12-01T23:00:00Z,28.8332,-90.8320,10.0,11.99,46.0,,'11111222,11111222,99999999' 
WAVCIS,ioos:station:WAVCIS:CSI15:1,2009-12-02T00:00:00Z,28.8332,-90.8320,10.0,15.75,330.0,,'11111222,11111222,99999999' 
WAVCIS,ioos:station:WAVCIS:CSI15:1,2009-12-02T01:00:00Z,28.8332,-90.8320,10.0,16.61,344.0,,'11111222,11111222,99999999' 
WAVCIS,ioos:station:WAVCIS:CSI15:1,2009-12-02T02:00:00Z,28.8332,-90.8320,10.0,14.33,17.0,,'11111222,11111222,99999999' 
WAVCIS,ioos:station:WAVCIS:CSI15:1,2009-12-02T03:00:00Z,28.8332,-90.8320,10.0,10.28,32.0,,'11111222,11111222,99999999' 
WAVCIS,ioos:station:WAVCIS:CSI15:1,2009-12-02T04:00:00Z,28.8332,-90.8320,10.0,9.52,52.0,,'11111222,11111222,99999999' 
WAVCIS,ioos:station:WAVCIS:CSI15:1,2009-12-02T05:00:00Z,28.8332,-90.8320,10.0,8.93,76.0,,'11111222,11111222,99999999' 
WAVCIS,ioos:station:WAVCIS:CSI15:1,2009-12-02T06:00:00Z,28.8332,-90.8320,10.0,7.12,98.0,,'11111222,11111222,99999999' 
WAVCIS,ioos:station:WAVCIS:CSI15:1,2009-12-02T07:00:00Z,28.8332,-90.8320,10.0,8.29,130.0,,'11111222,11111222,99999999' 
WAVCIS,ioos:station:WAVCIS:CSI15:1,2009-12-02T08:00:00Z,28.8332,-90.8320,10.0,15.78,184.0,,'11111222,11111222,99999999' 
WAVCIS,ioos:station:WAVCIS:CSI15:1,2009-12-02T09:00:00Z,28.8332,-90.8320,10.0,10.82,290.0,,'11111222,11111222,99999999' 
WAVCIS,ioos:station:WAVCIS:CSI15:1,2009-12-02T10:00:00Z,28.8332,-90.8320,10.0,3.044,319.0,,'11111222,11111222,99999999' 
WAVCIS,ioos:station:WAVCIS:CSI15:1,2009-12-02T11:00:00Z,28.8332,-90.8320,10.0,5.989,212.0,,'11111222,11111222,99999999' 
WAVCIS,ioos:station:WAVCIS:CSI15:1,2009-12-02T12:00:00Z,28.8332,-90.8320,10.0,10.26,228.0,,'11111222,11111222,99999999' 
WAVCIS,ioos:station:WAVCIS:CSI15:1,2009-12-02T13:00:00Z,28.8332,-90.8320,10.0,11.79,240.0,,'11111222,11111222,99999999' 
WAVCIS,ioos:station:WAVCIS:CSI15:1,2009-12-02T14:00:00Z,28.8332,-90.8320,10.0,9.92,256.0,,'11111222,11111222,99999999' 
WAVCIS,ioos:station:WAVCIS:CSI15:1,2009-12-02T15:00:00Z,28.8332,-90.8320,10.0,6.662,286.0,,'11111222,11111222,99999999' 
WAVCIS,ioos:station:WAVCIS:CSI15:1,2009-12-02T16:00:00Z,28.8332,-90.8320,10.0,0.752,274.0,,'11111222,11111222,99999999' 
WAVCIS,ioos:station:WAVCIS:CSI15:1,2009-12-02T17:00:00Z,28.8332,-90.8320,10.0,9.16,237.0,,'11111222,11111222,99999999' 
WAVCIS,ioos:station:WAVCIS:CSI15:1,2009-12-02T18:00:00Z,28.8332,-90.8320,10.0,13.62,236.0,,'11111222,11111222,99999999' 
WAVCIS,ioos:station:WAVCIS:CSI15:1,2009-12-02T19:00:00Z,28.8332,-90.8320,10.0,15.6,241.0,,'11111222,11111222,99999999' 
WAVCIS,ioos:station:WAVCIS:CSI15:1,2009-12-02T20:00:00Z,28.8332,-90.8320,10.0,15.96,243.0,,'11111222,11111222,99999999' 
WAVCIS,ioos:station:WAVCIS:CSI15:1,2009-12-02T21:00:00Z,28.8332,-90.8320,10.0,15.65,247.0,,'11111222,11111222,99999999' 
WAVCIS,ioos:station:WAVCIS:CSI15:1,2009-12-02T22:00:00Z,28.8332,-90.8320,10.0,13.95,256.0,,'11111222,11111222,99999999' 
WAVCIS,ioos:station:WAVCIS:CSI15:1,2009-12-02T23:00:00Z,28.8332,-90.8320,10.0,13.05,270.0,,'11111222,11111222,99999999' 
WAVCIS,ioos:station:WAVCIS:CSI15:1,2009-12-03T00:00:00Z,28.8332,-90.8320,10.0,11.7,284.0,,'11111222,11111222,99999999' 
WAVCIS,ioos:station:WAVCIS:CSI15:1,2009-12-03T01:00:00Z,28.8332,-90.8320,10.0,11.79,288.0,,'11111222,11111222,99999999' 
WAVCIS,ioos:station:WAVCIS:CSI15:1,2009-12-03T02:00:00Z,28.8332,-90.8320,10.0,12.81,287.0,,'11111222,11111222,99999999' 
WAVCIS,ioos:station:WAVCIS:CSI15:1,2009-12-03T03:00:00Z,28.8332,-90.8320,10.0,12.13,288.0,,'11111222,11111222,99999999' 
WAVCIS,ioos:station:WAVCIS:CSI15:1,2009-12-03T04:00:00Z,28.8332,-90.8320,10.0,9.03,305.0,,'11111222,11111222,99999999' 
WAVCIS,ioos:station:WAVCIS:CSI15:1,2009-12-03T05:00:00Z,28.8332,-90.8320,10.0,9.48,302.0,,'11111222,11111222,99999999' 
WAVCIS,ioos:station:WAVCIS:CSI15:1,2009-12-03T06:00:00Z,28.8332,-90.8320,10.0,9.62,301.0,,'11111222,11111222,99999999' 
WAVCIS,ioos:station:WAVCIS:CSI15:1,2009-12-03T07:00:00Z,28.8332,-90.8320,10.0,9.12,299.0,,'11111222,11111222,99999999' 
WAVCIS,ioos:station:WAVCIS:CSI15:1,2009-12-03T08:00:00Z,28.8332,-90.8320,10.0,8.06,303.0,,'11111222,11111222,99999999' 
WAVCIS,ioos:station:WAVCIS:CSI15:1,2009-12-03T09:00:00Z,28.8332,-90.8320,10.0,7.67,315.0,,'11111222,11111222,99999999' 
WAVCIS,ioos:station:WAVCIS:CSI15:1,2009-12-03T10:00:00Z,28.8332,-90.8320,10.0,7.04,327.0,,'11111222,11111222,99999999' 
WAVCIS,ioos:station:WAVCIS:CSI15:1,2009-12-03T11:00:00Z,28.8332,-90.8320,10.0,8.64,342.0,,'11111222,11111222,99999999' 
WAVCIS,ioos:station:WAVCIS:CSI15:1,2009-12-03T12:00:00Z,28.8332,-90.8320,10.0,9.2,343.0,,'11111222,11111222,99999999' 
WAVCIS,ioos:station:WAVCIS:CSI15:1,2009-12-03T13:00:00Z,28.8332,-90.8320,10.0,8.75,347.0,,'11111222,11111222,99999999' 
WAVCIS,ioos:station:WAVCIS:CSI15:1,2009-12-03T14:00:00Z,28.8332,-90.8320,10.0,7.58,336.0,,'11111222,11111222,99999999' 
WAVCIS,ioos:station:WAVCIS:CSI15:1,2009-12-03T15:00:00Z,28.8332,-90.8320,10.0,5.487,347.0,,'11111222,11111222,99999999' 
WAVCIS,ioos:station:WAVCIS:CSI15:1,2009-12-03T16:00:00Z,28.8332,-90.8320,10.0,5.497,352.0,,'11111222,11111222,99999999' 
WAVCIS,ioos:station:WAVCIS:CSI15:1,2009-12-03T17:00:00Z,28.8332,-90.8320,10.0,5.206,340.0,,'11111222,11111222,99999999' 
WAVCIS,ioos:station:WAVCIS:CSI15:1,2009-12-03T18:00:00Z,28.8332,-90.8320,10.0,4.39,318.0,,'11111222,11111222,99999999' 
WAVCIS,ioos:station:WAVCIS:CSI15:1,2009-12-03T19:00:00Z,28.8332,-90.8320,10.0,5.369,319.0,,'11111222,11111222,99999999' 
WAVCIS,ioos:station:WAVCIS:CSI15:1,2009-12-03T20:00:00Z,28.8332,-90.8320,10.0,3.319,311.0,,'11111222,11111222,99999999' 
WAVCIS,ioos:station:WAVCIS:CSI15:1,2009-12-03T21:00:00Z,28.8332,-90.8320,10.0,4.105,303.0,,'11111222,11111222,99999999' 
WAVCIS,ioos:station:WAVCIS:CSI15:1,2009-12-03T22:00:00Z,28.8332,-90.8320,10.0,3.548,298.0,,'11111222,11111222,99999999' 
WAVCIS,ioos:station:WAVCIS:CSI15:1,2009-12-03T23:00:00Z,28.8332,-90.8320,10.0,4.918,303.0,,'11111222,11111222,99999999' 
WAVCIS,ioos:station:WAVCIS:CSI15:1,2009-12-04T00:00:00Z,28.8332,-90.8320,10.0,6.866,316.0,,'11111222,11111222,99999999' 
WAVCIS,ioos:station:WAVCIS:CSI15:1,2009-12-04T01:00:00Z,28.8332,-90.8320,10.0,7.45,329.0,,'11111222,11111222,99999999' 
WAVCIS,ioos:station:WAVCIS:CSI15:1,2009-12-04T02:00:00Z,28.8332,-90.8320,10.0,6.847,320.0,,'11111222,11111222,99999999' 
WAVCIS,ioos:station:WAVCIS:CSI15:1,2009-12-04T03:00:00Z,28.8332,-90.8320,10.0,5.934,340.0,,'11111222,11111222,99999999' 
WAVCIS,ioos:station:WAVCIS:CSI15:1,2009-12-04T04:00:00Z,28.8332,-90.8320,10.0,7.46,351.0,,'11111222,11111222,99999999' 
WAVCIS,ioos:station:WAVCIS:CSI15:1,2009-12-04T05:00:00Z,28.8332,-90.8320,10.0,8.89,357.0,,'11111222,11111222,99999999' 
WAVCIS,ioos:station:WAVCIS:CSI15:1,2009-12-04T06:00:00Z,28.8332,-90.8320,10.0,7.46,10.0,,'11111222,11111222,99999999' 
WAVCIS,ioos:station:WAVCIS:CSI15:1,2009-12-04T07:00:00Z,28.8332,-90.8320,10.0,7.5,15.0,,'11111222,11111222,99999999' 
WAVCIS,ioos:station:WAVCIS:CSI15:1,2009-12-04T08:00:00Z,28.8332,-90.8320,10.0,9.39,7.0,,'11111222,11111222,99999999' 
WAVCIS,ioos:station:WAVCIS:CSI15:1,2009-12-04T09:00:00Z,28.8332,-90.8320,10.0,10.29,8.0,,'11111222,11111222,99999999' 
WAVCIS,ioos:station:WAVCIS:CSI15:1,2009-12-04T10:00:00Z,28.8332,-90.8320,10.0,10.74,6.0,,'11111222,11111222,99999999' 
WAVCIS,ioos:station:WAVCIS:CSI15:1,2009-12-04T11:00:00Z,28.8332,-90.8320,10.0,9.88,7.0,,'11111222,11111222,99999999' 
WAVCIS,ioos:station:WAVCIS:CSI15:1,2009-12-04T12:00:00Z,28.8332,-90.8320,10.0,10.61,12.0,,'11111222,11111222,99999999' 
WAVCIS,ioos:station:WAVCIS:CSI15:1,2009-12-04T13:00:00Z,28.8332,-90.8320,10.0,8.59,23.0,,'11111222,11111222,99999999' 
WAVCIS,ioos:station:WAVCIS:CSI15:1,2009-12-04T14:00:00Z,28.8332,-90.8320,10.0,8.73,22.0,,'11111222,11111222,99999999' 
WAVCIS,ioos:station:WAVCIS:CSI15:1,2009-12-04T15:00:00Z,28.8332,-90.8320,10.0,9.76,17.0,,'11111222,11111222,99999999' 
WAVCIS,ioos:station:WAVCIS:CSI15:1,2009-12-04T16:00:00Z,28.8332,-90.8320,10.0,9.83,19.0,,'11111222,11111222,99999999' 
WAVCIS,ioos:station:WAVCIS:CSI15:1,2009-12-04T17:00:00Z,28.8332,-90.8320,10.0,13.21,39.0,,'11111222,11111222,99999999' 
WAVCIS,ioos:station:WAVCIS:CSI15:1,2009-12-04T18:00:00Z,28.8332,-90.8320,10.0,10.54,3.0,,'11111222,11111222,99999999' 
WAVCIS,ioos:station:WAVCIS:CSI15:1,2009-12-04T19:00:00Z,28.8332,-90.8320,10.0,10.51,6.0,,'11111222,11111222,99999999' 
WAVCIS,ioos:station:WAVCIS:CSI15:1,2009-12-04T20:00:00Z,28.8332,-90.8320,10.0,10.14,3.0,,'11111222,11111222,99999999' 
WAVCIS,ioos:station:WAVCIS:CSI15:1,2009-12-04T21:00:00Z,28.8332,-90.8320,10.0,10.6,3.0,,'11111222,11111222,99999999' 
WAVCIS,ioos:station:WAVCIS:CSI15:1,2009-12-04T22:00:00Z,28.8332,-90.8320,10.0,11.14,340.0,,'11111222,11111222,99999999' 
WAVCIS,ioos:station:WAVCIS:CSI15:1,2009-12-04T23:00:00Z,28.8332,-90.8320,10.0,11.81,342.0,,'11111222,11111222,99999999' 
WAVCIS,ioos:station:WAVCIS:CSI15:1,2009-12-05T00:00:00Z,28.8332,-90.8320,10.0,14.9,335.0,,'11111222,11111222,99999999' 
WAVCIS,ioos:station:WAVCIS:CSI15:1,2009-12-05T01:00:00Z,28.8332,-90.8320,10.0,15.73,337.0,,'11111222,11111222,99999999' 
WAVCIS,ioos:station:WAVCIS:CSI15:1,2009-12-05T02:00:00Z,28.8332,-90.8320,10.0,14.06,338.0,,'11111222,11111222,99999999' 
WAVCIS,ioos:station:WAVCIS:CSI15:1,2009-12-05T03:00:00Z,28.8332,-90.8320,10.0,12.24,343.0,,'11111222,11111222,99999999' 
WAVCIS,ioos:station:WAVCIS:CSI15:1,2009-12-05T04:00:00Z,28.8332,-90.8320,10.0,11.8,349.0,,'11111222,11111222,99999999' 
WAVCIS,ioos:station:WAVCIS:CSI15:1,2009-12-05T05:00:00Z,28.8332,-90.8320,10.0,10.38,353.0,,'11111222,11111222,99999999' 
WAVCIS,ioos:station:WAVCIS:CSI15:1,2009-12-05T06:00:00Z,28.8332,-90.8320,10.0,10.5,352.0,,'11111222,11111222,99999999' 
WAVCIS,ioos:station:WAVCIS:CSI15:1,2009-12-05T07:00:00Z,28.8332,-90.8320,10.0,10.54,340.0,,'11111222,11111222,99999999' 
WAVCIS,ioos:station:WAVCIS:CSI15:1,2009-12-05T08:00:00Z,28.8332,-90.8320,10.0,10.6,341.0,,'11111222,11111222,99999999' 
WAVCIS,ioos:station:WAVCIS:CSI15:1,2009-12-05T09:00:00Z,28.8332,-90.8320,10.0,10.46,335.0,,'11111222,11111222,99999999' 
WAVCIS,ioos:station:WAVCIS:CSI15:1,2009-12-05T10:00:00Z,28.8332,-90.8320,10.0,9.67,330.0,,'11111222,11111222,99999999' 
WAVCIS,ioos:station:WAVCIS:CSI15:1,2009-12-05T11:00:00Z,28.8332,-90.8320,10.0,8.85,343.0,,'11111222,11111222,99999999' 
WAVCIS,ioos:station:WAVCIS:CSI15:1,2009-12-05T12:00:00Z,28.8332,-90.8320,10.0,8.07,325.0,,'11111222,11111222,99999999' 
WAVCIS,ioos:station:WAVCIS:CSI15:1,2009-12-05T13:00:00Z,28.8332,-90.8320,10.0,8.69,336.0,,'11111222,11111222,99999999' 
WAVCIS,ioos:station:WAVCIS:CSI15:1,2009-12-05T14:00:00Z,28.8332,-90.8320,10.0,9.52,333.0,,'11111222,11111222,99999999' 
WAVCIS,ioos:station:WAVCIS:CSI15:1,2009-12-05T15:00:00Z,28.8332,-90.8320,10.0,8.62,340.0,,'11111222,11111222,99999999' 
WAVCIS,ioos:station:WAVCIS:CSI15:1,2009-12-05T16:00:00Z,28.8332,-90.8320,10.0,7.43,348.0,,'11111222,11111222,99999999' 
WAVCIS,ioos:station:WAVCIS:CSI15:1,2009-12-05T17:00:00Z,28.8332,-90.8320,10.0,6.492,350.0,,'11111222,11111222,99999999' 
WAVCIS,ioos:station:WAVCIS:CSI15:1,2009-12-05T18:00:00Z,28.8332,-90.8320,10.0,5.598,351.0,,'11111222,11111222,99999999' 
WAVCIS,ioos:station:WAVCIS:CSI15:1,2009-12-05T19:00:00Z,28.8332,-90.8320,10.0,5.02,4.0,,'11111222,11111222,99999999' 
WAVCIS,ioos:station:WAVCIS:CSI15:1,2009-12-05T20:00:00Z,28.8332,-90.8320,10.0,3.467,9.0,,'11111222,11111222,99999999' 
WAVCIS,ioos:station:WAVCIS:CSI15:1,2009-12-05T21:00:00Z,28.8332,-90.8320,10.0,2.58,339.0,,'11111222,11111222,99999999' 
WAVCIS,ioos:station:WAVCIS:CSI15:1,2009-12-05T22:00:00Z,28.8332,-90.8320,10.0,3.202,9.0,,'11111222,11111222,99999999' 
WAVCIS,ioos:station:WAVCIS:CSI15:1,2009-12-05T23:00:00Z,28.8332,-90.8320,10.0,3.932,359.0,,'11111222,11111222,99999999' 
WAVCIS,ioos:station:WAVCIS:CSI15:1,2009-12-06T00:00:00Z,28.8332,-90.8320,10.0,4.598,9.0,,'11111222,11111222,99999999' 
WAVCIS,ioos:station:WAVCIS:CSI15:1,2009-12-06T01:00:00Z,28.8332,-90.8320,10.0,5.323,14.0,,'11111222,11111222,99999999' 
WAVCIS,ioos:station:WAVCIS:CSI15:1,2009-12-06T02:00:00Z,28.8332,-90.8320,10.0,4.149,23.0,,'11111222,11111222,99999999' 
WAVCIS,ioos:station:WAVCIS:CSI15:1,2009-12-06T03:00:00Z,28.8332,-90.8320,10.0,5.66,20.0,,'11111222,11111222,99999999' 
WAVCIS,ioos:station:WAVCIS:CSI15:1,2009-12-06T04:00:00Z,28.8332,-90.8320,10.0,4.74,26.0,,'11111222,11111222,99999999' 
WAVCIS,ioos:station:WAVCIS:CSI15:1,2009-12-06T05:00:00Z,28.8332,-90.8320,10.0,5.6,38.0,,'11111222,11111222,99999999' 
WAVCIS,ioos:station:WAVCIS:CSI15:1,2009-12-06T06:00:00Z,28.8332,-90.8320,10.0,4.764,58.0,,'11111222,11111222,99999999' 
WAVCIS,ioos:station:WAVCIS:CSI15:1,2009-12-06T07:00:00Z,28.8332,-90.8320,10.0,4.2,63.0,,'11111222,11111222,99999999' 
WAVCIS,ioos:station:WAVCIS:CSI15:1,2009-12-06T08:00:00Z,28.8332,-90.8320,10.0,4.644,74.0,,'11111222,11111222,99999999' 
WAVCIS,ioos:station:WAVCIS:CSI15:1,2009-12-06T09:00:00Z,28.8332,-90.8320,10.0,5.457,47.0,,'11111222,11111222,99999999' 
WAVCIS,ioos:station:WAVCIS:CSI15:1,2009-12-06T10:00:00Z,28.8332,-90.8320,10.0,6.67,32.0,,'11111222,11111222,99999999' 
WAVCIS,ioos:station:WAVCIS:CSI15:1,2009-12-06T11:00:00Z,28.8332,-90.8320,10.0,6.478,45.0,,'11111222,11111222,99999999' 
WAVCIS,ioos:station:WAVCIS:CSI15:1,2009-12-06T12:00:00Z,28.8332,-90.8320,10.0,6.909,43.0,,'11111222,11111222,99999999' 
WAVCIS,ioos:station:WAVCIS:CSI15:1,2009-12-06T13:00:00Z,28.8332,-90.8320,10.0,4.877,36.0,,'11111222,11111222,99999999' 
WAVCIS,ioos:station:WAVCIS:CSI15:1,2009-12-06T14:00:00Z,28.8332,-90.8320,10.0,6.243,32.0,,'11111222,11111222,99999999' 
WAVCIS,ioos:station:WAVCIS:CSI15:1,2009-12-06T15:00:00Z,28.8332,-90.8320,10.0,8.08,26.0,,'11111222,11111222,99999999' 
WAVCIS,ioos:station:WAVCIS:CSI15:1,2009-12-06T16:00:00Z,28.8332,-90.8320,10.0,8.46,26.0,,'11111222,11111222,99999999' 
WAVCIS,ioos:station:WAVCIS:CSI15:1,2009-12-06T17:00:00Z,28.8332,-90.8320,10.0,9.65,24.0,,'11111222,11111222,99999999' 
WAVCIS,ioos:station:WAVCIS:CSI15:1,2009-12-06T18:00:00Z,28.8332,-90.8320,10.0,10.05,24.0,,'11111222,11111222,99999999' 
WAVCIS,ioos:station:WAVCIS:CSI15:1,2009-12-06T19:00:00Z,28.8332,-90.8320,10.0,10.45,17.0,,'11111222,11111222,99999999' 
WAVCIS,ioos:station:WAVCIS:CSI15:1,2009-12-06T20:00:00Z,28.8332,-90.8320,10.0,11.28,24.0,,'11111222,11111222,99999999' 
WAVCIS,ioos:station:WAVCIS:CSI15:1,2009-12-06T21:00:00Z,28.8332,-90.8320,10.0,10.86,28.0,,'11111222,11111222,99999999' 
WAVCIS,ioos:station:WAVCIS:CSI15:1,2009-12-06T22:00:00Z,28.8332,-90.8320,10.0,10.23,43.0,,'11111222,11111222,99999999' 
WAVCIS,ioos:station:WAVCIS:CSI15:1,2009-12-06T23:00:00Z,28.8332,-90.8320,10.0,10.83,49.0,,'11111222,11111222,99999999' 
WAVCIS,ioos:station:WAVCIS:CSI15:1,2009-12-07T00:00:00Z,28.8332,-90.8320,10.0,11.1,54.0,,'11111222,11111222,99999999' 
WAVCIS,ioos:station:WAVCIS:CSI15:1,2009-12-07T01:00:00Z,28.8332,-90.8320,10.0,12.1,63.0,,'11111222,11111222,99999999' 
WAVCIS,ioos:station:WAVCIS:CSI15:1,2009-12-07T02:00:00Z,28.8332,-90.8320,10.0,9.22,75.0,,'11111222,11111222,99999999' 
WAVCIS,ioos:station:WAVCIS:CSI15:1,2009-12-07T03:00:00Z,28.8332,-90.8320,10.0,9.01,76.0,,'11111222,11111222,99999999' 
WAVCIS,ioos:station:WAVCIS:CSI15:1,2009-12-07T04:00:00Z,28.8332,-90.8320,10.0,7.74,91.0,,'11111222,11111222,99999999' 
WAVCIS,ioos:station:WAVCIS:CSI15:1,2009-12-07T05:00:00Z,28.8332,-90.8320,10.0,9.32,117.0,,'11111222,11111222,99999999' 
WAVCIS,ioos:station:WAVCIS:CSI15:1,2009-12-07T06:00:00Z,28.8332,-90.8320,10.0,8.32,115.0,,'11111222,11111222,99999999' 
WAVCIS,ioos:station:WAVCIS:CSI15:1,2009-12-07T07:00:00Z,28.8332,-90.8320,10.0,10.0,121.0,,'11111222,11111222,99999999' 
WAVCIS,ioos:station:WAVCIS:CSI15:1,2009-12-07T08:00:00Z,28.8332,-90.8320,10.0,8.33,121.0,,'11111222,11111222,99999999' 
WAVCIS,ioos:station:WAVCIS:CSI15:1,2009-12-07T09:00:00Z,28.8332,-90.8320,10.0,9.33,123.0,,'11111222,11111222,99999999' 
WAVCIS,ioos:station:WAVCIS:CSI15:1,2009-12-07T10:00:00Z,28.8332,-90.8320,10.0,8.78,123.0,,'11111222,11111222,99999999' 
WAVCIS,ioos:station:WAVCIS:CSI15:1,2009-12-07T11:00:00Z,28.8332,-90.8320,10.0,8.62,123.0,,'11111222,11111222,99999999' 
WAVCIS,ioos:station:WAVCIS:CSI15:1,2009-12-07T12:00:00Z,28.8332,-90.8320,10.0,7.79,125.0,,'11111222,11111222,99999999' 
WAVCIS,ioos:station:WAVCIS:CSI15:1,2009-12-07T13:00:00Z,28.8332,-90.8320,10.0,9.23,124.0,,'11111222,11111222,99999999' 
WAVCIS,ioos:station:WAVCIS:CSI15:1,2009-12-07T14:00:00Z,28.8332,-90.8320,10.0,7.51,126.0,,'11111222,11111222,99999999' 
WAVCIS,ioos:station:WAVCIS:CSI15:1,2009-12-07T15:00:00Z,28.8332,-90.8320,10.0,6.343,103.0,,'11111222,11111222,99999999' 
WAVCIS,ioos:station:WAVCIS:CSI15:1,2009-12-07T16:00:00Z,28.8332,-90.8320,10.0,8.69,122.0,,'11111222,11111222,99999999' 
WAVCIS,ioos:station:WAVCIS:CSI15:1,2009-12-07T17:00:00Z,28.8332,-90.8320,10.0,10.07,127.0,,'11111222,11111222,99999999' 
WAVCIS,ioos:station:WAVCIS:CSI15:1,2009-12-07T18:00:00Z,28.8332,-90.8320,10.0,5.491,110.0,,'11111222,11111222,99999999' 
WAVCIS,ioos:station:WAVCIS:CSI15:1,2009-12-07T19:00:00Z,28.8332,-90.8320,10.0,7.9,120.0,,'11111222,11111222,99999999' 
WAVCIS,ioos:station:WAVCIS:CSI15:1,2009-12-07T20:00:00Z,28.8332,-90.8320,10.0,8.06,111.0,,'11111222,11111222,99999999' 
WAVCIS,ioos:station:WAVCIS:CSI15:1,2009-12-07T21:00:00Z,28.8332,-90.8320,10.0,7.62,111.0,,'11111222,11111222,99999999' 
WAVCIS,ioos:station:WAVCIS:CSI15:1,2009-12-07T22:00:00Z,28.8332,-90.8320,10.0,8.29,105.0,,'11111222,11111222,99999999' 
WAVCIS,ioos:station:WAVCIS:CSI15:1,2009-12-07T23:00:00Z,28.8332,-90.8320,10.0,7.37,106.0,,'11111222,11111222,99999999' 
WAVCIS,ioos:station:WAVCIS:CSI15:1,2009-12-08T00:00:00Z,28.8332,-90.8320,10.0,8.21,109.0,,'11111222,11111222,99999999' 
WAVCIS,ioos:station:WAVCIS:CSI15:1,2009-12-08T01:00:00Z,28.8332,-90.8320,10.0,9.03,111.0,,'11111222,11111222,99999999' 
WAVCIS,ioos:station:WAVCIS:CSI15:1,2009-12-08T02:00:00Z,28.8332,-90.8320,10.0,11.03,110.0,,'11111222,11111222,99999999' 
WAVCIS,ioos:station:WAVCIS:CSI15:1,2009-12-08T03:00:00Z,28.8332,-90.8320,10.0,11.67,109.0,,'11111222,11111222,99999999' 
WAVCIS,ioos:station:WAVCIS:CSI15:1,2009-12-08T04:00:00Z,28.8332,-90.8320,10.0,11.63,110.0,,'11111222,11111222,99999999' 
WAVCIS,ioos:station:WAVCIS:CSI15:1,2009-12-08T05:00:00Z,28.8332,-90.8320,10.0,10.84,114.0,,'11111222,11111222,99999999' 
WAVCIS,ioos:station:WAVCIS:CSI15:1,2009-12-08T06:00:00Z,28.8332,-90.8320,10.0,12.43,120.0,,'11111222,11111222,99999999' 
WAVCIS,ioos:station:WAVCIS:CSI15:1,2009-12-08T07:00:00Z,28.8332,-90.8320,10.0,14.09,124.0,,'11111222,11111222,99999999' 
WAVCIS,ioos:station:WAVCIS:CSI15:1,2009-12-08T08:00:00Z,28.8332,-90.8320,10.0,13.86,128.0,,'11111222,11111222,99999999' 
WAVCIS,ioos:station:WAVCIS:CSI15:1,2009-12-08T09:00:00Z,28.8332,-90.8320,10.0,11.24,136.0,,'11111222,11111222,99999999' 
WAVCIS,ioos:station:WAVCIS:CSI15:1,2009-12-09T00:00:00Z,28.8332,-90.8320,10.0,11.93,151.0,,'11111222,11111222,99999999' 
WAVCIS,ioos:station:WAVCIS:CSI15:1,2009-12-09T01:00:00Z,28.8332,-90.8320,10.0,10.91,154.0,,'11111222,11111222,99999999' 
WAVCIS,ioos:station:WAVCIS:CSI15:1,2009-12-09T02:00:00Z,28.8332,-90.8320,10.0,10.13,161.0,,'11111222,11111222,99999999' 
WAVCIS,ioos:station:WAVCIS:CSI15:1,2009-12-09T03:00:00Z,28.8332,-90.8320,10.0,11.67,166.0,,'11111222,11111222,99999999' 
WAVCIS,ioos:station:WAVCIS:CSI15:1,2009-12-09T04:00:00Z,28.8332,-90.8320,10.0,11.56,169.0,,'11111222,11111222,99999999' 
WAVCIS,ioos:station:WAVCIS:CSI15:1,2009-12-09T05:00:00Z,28.8332,-90.8320,10.0,9.25,182.0,,'11111222,11111222,99999999' 
WAVCIS,ioos:station:WAVCIS:CSI15:1,2009-12-09T06:00:00Z,28.8332,-90.8320,10.0,8.33,178.0,,'11111222,11111222,99999999' 
WAVCIS,ioos:station:WAVCIS:CSI15:1,2009-12-09T07:00:00Z,28.8332,-90.8320,10.0,4.64,244.0,,'11111222,11111222,99999999' 
WAVCIS,ioos:station:WAVCIS:CSI15:1,2009-12-09T08:00:00Z,28.8332,-90.8320,10.0,6.197,187.0,,'11111222,11111222,99999999' 
WAVCIS,ioos:station:WAVCIS:CSI15:1,2009-12-09T09:00:00Z,28.8332,-90.8320,10.0,7.58,195.0,,'11111222,11111222,99999999' 
WAVCIS,ioos:station:WAVCIS:CSI15:1,2009-12-09T10:00:00Z,28.8332,-90.8320,10.0,6.178,204.0,,'11111222,11111222,99999999' 
WAVCIS,ioos:station:WAVCIS:CSI15:1,2009-12-09T11:00:00Z,28.8332,-90.8320,10.0,7.14,200.0,,'11111222,11111222,99999999' 
WAVCIS,ioos:station:WAVCIS:CSI15:1,2009-12-09T12:00:00Z,28.8332,-90.8320,10.0,6.903,202.0,,'11111222,11111222,99999999' 
WAVCIS,ioos:station:WAVCIS:CSI15:1,2009-12-09T13:00:00Z,28.8332,-90.8320,10.0,6.679,214.0,,'11111222,11111222,99999999' 
WAVCIS,ioos:station:WAVCIS:CSI15:1,2009-12-09T14:00:00Z,28.8332,-90.8320,10.0,6.537,267.0,,'11111222,11111222,99999999' 
WAVCIS,ioos:station:WAVCIS:CSI15:1,2009-12-09T15:00:00Z,28.8332,-90.8320,10.0,6.272,289.0,,'11111222,11111222,99999999' 
WAVCIS,ioos:station:WAVCIS:CSI15:1,2009-12-09T16:00:00Z,28.8332,-90.8320,10.0,7.76,294.0,,'11111222,11111222,99999999' 
WAVCIS,ioos:station:WAVCIS:CSI15:1,2009-12-09T17:00:00Z,28.8332,-90.8320,10.0,7.35,292.0,,'11111222,11111222,99999999' 
WAVCIS,ioos:station:WAVCIS:CSI15:1,2009-12-09T18:00:00Z,28.8332,-90.8320,10.0,8.35,295.0,,'11111222,11111222,99999999' 
WAVCIS,ioos:station:WAVCIS:CSI15:1,2009-12-09T19:00:00Z,28.8332,-90.8320,10.0,6.71,307.0,,'11111222,11111222,99999999' 